Regional Weather Roundup
Issued by NWS Midland/Odessa, TX

Skip options and go directly to product.
Home | Oldest Version | Previous Version | Current Version | All | Text Only | Save Text | Print | Product List | Glossary Off

Skip product version selection by date and time.   

104
ASUS44 KMAF 261310
RWRMAF
MIDLAND AREA WEATHER ROUNDUP
NATIONAL WEATHER SERVICE MIDLAND TX
800 AM CDT FRI AUG 26 2016

...IN SOUTHWEST TEXAS AND SOUTHEAST NEW MEXICO...

CITY           SKY/WX    TMP DP  RH WIND       PRES   REMARKS
ALPINE         CLOUDY    64  59  83 SW14      30.26R
ANDREWS        NOT AVBL
ARTESIA        CLOUDY    63  63 100 W3        30.16R
BIG SPRING     MOCLDY    71  66  86 E6        30.14R
CARLSBAD       CLOUDY    62  62 100 CALM      30.14R
DRYDEN           N/A     74  70  87 SE7       30.07R
FORT STOCKTON  CLOUDY    70  66  87 SE8       30.10R
GUAD PASS      CLEAR     59  55  87 NE15      30.24R
HOBBS          MOCLDY    63  63 100 N5        30.18R
MARFA          CLOUDY   N/A N/A N/A S10       30.25R
MIDLAND AIRPK  MOCLDY    70  64  82 E6        30.13R
MIDLAND INTL   PTCLDY    70  64  81 NE6       30.12R
ODESSA         CLOUDY    69  64  84 NE5       30.14R
PECOS          CLOUDY    66  64  93 NE6       30.09S
PRESIDIO       NOT AVBL
SEMINOLE       CLOUDY    65  64  96 CALM      30.16S
SNYDER           N/A     65  63  92 E6        30.12S
WINK           PTCLDY    68  64  87 MISG      30.10R
$$
...OTHER STATIONS IN TEXAS...

CITY           SKY/WX    TMP DP  RH WIND       PRES   REMARKS
ABILENE        CLEAR     70  66  87 E3        30.10R
AMARILLO       CLOUDY    63  60  90 CALM      30.17S
AUSTIN         MOSUNNY   75  73  93 CALM      30.04R
BROWNSVILLE    SUNNY     77  77 100 CALM      29.98R
CORPUS CHRISTI MOSUNNY   78  77  96 N3        30.00R
DALLAS FTW     MOSUNNY   78  72  81 SE3       30.05R
DEL RIO        CLOUDY    75  73  93 E6        30.03R
EL PASO        PTCLDY    66  58  75 NE3       30.12R
HOUSTON INT    PTSUNNY   76  74  93 E3        30.02F
LUBBOCK        CLOUDY    64  62  93 E5        30.15R
SAN ANGELO     CLEAR     71  67  87 CALM      30.09R
SAN ANTONIO    PTSUNNY   78  74  87 CALM      30.05R
WACO           SUNNY     76  75  97 SW3       30.04R
WICHITA FALLS  NOT AVBL
$$
...OTHER LOCATIONS IN NEW MEXICO...

CITY           SKY/WX    TMP DP  RH WIND       PRES   REMARKS
ALAMAGORDO     CLOUDY    63  50  63 N5        30.16R
ALBUQUERQUE    CLOUDY    60  55  83 N10       30.23R
CANNON AFB     CLOUDY    60  60 100 N5        30.21R
CLOVIS         CLOUDY    61  55  82 CALM      30.21R
HOLLOMAN AFB   NOT AVBL
ROSWELL        CLEAR     60  57  89 SW5       30.15S
RUIDOSO          N/A     50  48  93 W5        30.32R
SANTA FE       CLOUDY    55  53  93 NW3       30.27R
TRUTH OR CONSE PTCLDY    63  55  75 CALM      30.16R
TUCUMCARI      MOCLDY    61  59  93 NW3       30.20R
$$

USA.gov is the U.S. government's official web portal to all federal, state and local government web resources and services.